Time,TemperatureF,DewpointF,PressureIn,WindDirection,WindDirectionDegrees,WindSpeedMPH,WindSpeedGustMPH,Humidity,HourlyPrecipIn,Conditions,Clouds,dailyrainin,SoftwareType,DateUTC
2013-05-21 00:07:00,58.9,57.0,29.48,South,175,0.0,-999.0,92,-99.99,,,0.00,weatherlink.com 1.10,2013-05-21 05:07:00,
2013-05-21 00:22:00,59.3,57.0,29.48,South,175,0.0,-999.0,93,-99.99,,,0.00,weatherlink.com 1.10,2013-05-21 05:22:00,
2013-05-21 00:37:00,59.6,58.0,29.46,South,175,1.0,-999.0,93,-99.99,,,0.01,weatherlink.com 1.10,2013-05-21 05:37:00,
2013-05-21 00:52:00,60.5,59.0,29.46,South,175,0.0,-999.0,94,-99.99,,,0.02,weatherlink.com 1.10,2013-05-21 05:52:00,
2013-05-21 01:07:00,60.9,60.0,29.46,WNW,298,1.0,-999.0,95,-99.99,,,0.13,weatherlink.com 1.10,2013-05-21 06:07:00,
2013-05-21 01:22:00,60.7,59.0,29.50,West,271,3.0,-999.0,95,-99.99,,,0.33,weatherlink.com 1.10,2013-05-21 06:22:00,
2013-05-21 01:37:00,60.1,58.0,29.50,NW,317,0.0,-999.0,94,-99.99,,,0.44,weatherlink.com 1.10,2013-05-21 06:37:00,
2013-05-21 01:52:00,59.5,58.0,29.50,SSW,202,0.0,-999.0,94,-99.99,,,0.48,weatherlink.com 1.10,2013-05-21 06:52:00,
2013-05-21 02:07:00,58.9,57.0,29.50,West,273,0.0,-999.0,93,-99.99,,,0.54,weatherlink.com 1.10,2013-05-21 07:07:00,
2013-05-21 02:22:00,58.6,57.0,29.49,West,273,0.0,-999.0,94,-99.99,,,0.59,weatherlink.com 1.10,2013-05-21 07:22:00,
2013-05-21 02:37:00,58.4,57.0,29.49,West,273,0.0,-999.0,94,-99.99,,,0.60,weatherlink.com 1.10,2013-05-21 07:37:00,
2013-05-21 02:52:00,58.3,57.0,29.47,West,273,0.0,-999.0,94,-99.99,,,0.62,weatherlink.com 1.10,2013-05-21 07:52:00,
2013-05-21 03:07:00,58.1,57.0,29.46,West,273,1.0,-999.0,95,-99.99,,,0.64,weatherlink.com 1.10,2013-05-21 08:07:00,
2013-05-21 03:22:00,58.1,57.0,29.46,West,273,0.0,-999.0,95,-99.99,,,0.65,weatherlink.com 1.10,2013-05-21 08:22:00,
2013-05-21 03:37:00,58.0,57.0,29.46,West,273,0.0,-999.0,95,-99.99,,,0.65,weatherlink.com 1.10,2013-05-21 08:37:00,
2013-05-21 03:52:00,57.6,56.0,29.45,West,273,0.0,-999.0,95,-99.99,,,0.65,weatherlink.com 1.10,2013-05-21 08:52:00,
2013-05-21 04:07:00,57.5,56.0,29.45,West,273,0.0,-999.0,95,-99.99,,,0.65,weatherlink.com 1.10,2013-05-21 09:07:00,
2013-05-21 04:22:00,57.3,56.0,29.45,West,273,0.0,-999.0,95,-99.99,,,0.65,weatherlink.com 1.10,2013-05-21 09:22:00,
2013-05-21 04:37:00,57.3,56.0,29.45,West,273,0.0,-999.0,96,-99.99,,,0.65,weatherlink.com 1.10,2013-05-21 09:37:00,
2013-05-21 04:52:00,57.3,56.0,29.46,SSW,210,0.0,-999.0,96,-99.99,,,0.65,weatherlink.com 1.10,2013-05-21 09:52:00,
2013-05-21 05:08:00,57.3,56.0,29.46,SSW,210,0.0,-999.0,96,-99.99,,,0.65,weatherlink.com 1.10,2013-05-21 10:08:00,
2013-05-21 05:23:00,57.2,56.0,29.46,SSW,210,0.0,-999.0,96,-99.99,,,0.65,weatherlink.com 1.10,2013-05-21 10:23:00,
2013-05-21 05:38:00,57.0,56.0,29.47,SSW,210,0.0,-999.0,96,-99.99,,,0.65,weatherlink.com 1.10,2013-05-21 10:38:00,
2013-05-21 05:53:00,56.9,56.0,29.47,SSW,210,0.0,-999.0,96,-99.99,,,0.65,weatherlink.com 1.10,2013-05-21 10:53:00,
2013-05-21 06:08:00,57.0,56.0,29.48,SSW,210,0.0,-999.0,96,-99.99,,,0.65,weatherlink.com 1.10,2013-05-21 11:08:00,
2013-05-21 06:23:00,57.5,57.0,29.49,SSW,210,0.0,-999.0,97,-99.99,,,0.65,weatherlink.com 1.10,2013-05-21 11:23:00,
2013-05-21 06:38:00,57.8,57.0,29.48,SSW,210,0.0,-999.0,97,-99.99,,,0.65,weatherlink.com 1.10,2013-05-21 11:38:00,
2013-05-21 06:53:00,58.1,57.0,29.48,SSW,210,0.0,-999.0,97,-99.99,,,0.66,weatherlink.com 1.10,2013-05-21 11:53:00,
2013-05-21 07:08:00,58.4,58.0,29.48,SSW,210,0.0,-999.0,97,-99.99,,,0.66,weatherlink.com 1.10,2013-05-21 12:08:00,
2013-05-21 07:23:00,58.9,58.0,29.48,SSW,210,0.0,-999.0,97,-99.99,,,0.66,weatherlink.com 1.10,2013-05-21 12:23:00,
2013-05-21 07:38:00,59.3,59.0,29.48,SSW,210,0.0,-999.0,98,-99.99,,,0.66,weatherlink.com 1.10,2013-05-21 12:38:00,
2013-05-21 07:53:00,59.6,59.0,29.48,SSW,210,0.0,-999.0,97,-99.99,,,0.66,weatherlink.com 1.10,2013-05-21 12:53:00,
2013-05-21 08:08:00,59.8,59.0,29.48,SSW,210,0.0,-999.0,98,-99.99,,,0.66,weatherlink.com 1.10,2013-05-21 13:08:00,
2013-05-21 08:23:00,60.1,60.0,29.47,SSW,210,0.0,-999.0,98,-99.99,,,0.66,weatherlink.com 1.10,2013-05-21 13:23:00,
2013-05-21 08:38:00,60.5,60.0,29.48,SSW,207,0.0,-999.0,98,-99.99,,,0.66,weatherlink.com 1.10,2013-05-21 13:38:00,
2013-05-21 08:53:00,60.5,60.0,29.49,SSW,207,0.0,-999.0,98,-99.99,,,0.66,weatherlink.com 1.10,2013-05-21 13:53:00,
2013-05-21 09:08:00,60.5,60.0,29.49,SSW,207,0.0,-999.0,98,-99.99,,,0.66,weatherlink.com 1.10,2013-05-21 14:08:00,
2013-05-21 09:23:00,60.9,60.0,29.49,SSW,207,0.0,-999.0,98,-99.99,,,0.66,weatherlink.com 1.10,2013-05-21 14:23:00,
2013-05-21 09:38:00,61.0,61.0,29.49,SSW,207,0.0,-999.0,98,-99.99,,,0.66,weatherlink.com 1.10,2013-05-21 14:38:00,
2013-05-21 09:53:00,61.2,61.0,29.49,SSW,207,0.0,-999.0,98,-99.99,,,0.66,weatherlink.com 1.10,2013-05-21 14:53:00,
2013-05-21 10:08:00,61.2,61.0,29.50,SSW,207,0.0,-999.0,98,-99.99,,,0.67,weatherlink.com 1.10,2013-05-21 15:08:00,
2013-05-21 10:23:00,61.8,61.0,29.49,SSE,153,0.0,-999.0,98,-99.99,,,0.67,weatherlink.com 1.10,2013-05-21 15:23:00,
2013-05-21 10:38:00,62.4,62.0,29.49,SSE,153,0.0,-999.0,98,-99.99,,,0.67,weatherlink.com 1.10,2013-05-21 15:38:00,
2013-05-21 10:53:00,62.7,62.0,29.48,SSE,153,0.0,-999.0,98,-99.99,,,0.68,weatherlink.com 1.10,2013-05-21 15:53:00,
2013-05-21 11:09:00,62.7,62.0,29.50,SSE,153,0.0,-999.0,98,-99.99,,,0.68,weatherlink.com 1.10,2013-05-21 16:09:00,
2013-05-21 11:24:00,62.9,62.0,29.50,SW,225,0.0,-999.0,98,-99.99,,,0.68,weatherlink.com 1.10,2013-05-21 16:24:00,
2013-05-21 11:39:00,63.4,63.0,29.50,SW,225,0.0,-999.0,98,-99.99,,,0.68,weatherlink.com 1.10,2013-05-21 16:39:00,
2013-05-21 11:54:00,63.2,62.0,29.50,SW,218,1.0,-999.0,97,-99.99,,,0.68,weatherlink.com 1.10,2013-05-21 16:54:00,
2013-05-21 12:09:00,64.0,64.0,29.50,SW,218,0.0,-999.0,98,-99.99,,,0.68,weatherlink.com 1.10,2013-05-21 17:09:00,
2013-05-21 12:24:00,65.3,65.0,29.49,SW,218,1.0,-999.0,98,-99.99,,,0.68,weatherlink.com 1.10,2013-05-21 17:24:00,
2013-05-21 12:39:00,65.3,64.0,29.49,WNW,299,0.0,-999.0,95,-99.99,,,0.68,weatherlink.com 1.10,2013-05-21 17:39:00,
2013-05-21 12:54:00,66.1,64.0,29.49,South,181,1.0,-999.0,93,-99.99,,,0.68,weatherlink.com 1.10,2013-05-21 17:54:00,
2013-05-21 13:09:00,67.3,64.0,29.49,SSW,207,0.0,-999.0,88,-99.99,,,0.68,weatherlink.com 1.10,2013-05-21 18:09:00,
2013-05-21 13:24:00,68.1,64.0,29.49,SSW,207,0.0,-999.0,86,-99.99,,,0.68,weatherlink.com 1.10,2013-05-21 18:24:00,
2013-05-21 13:39:00,68.3,62.0,29.49,SSW,207,2.0,-999.0,79,-99.99,,,0.68,weatherlink.com 1.10,2013-05-21 18:39:00,
2013-05-21 13:54:00,67.9,60.0,29.50,SW,221,1.0,-999.0,77,-99.99,,,0.68,weatherlink.com 1.10,2013-05-21 18:54:00,
2013-05-21 14:09:00,66.8,60.0,29.51,SW,234,2.0,-999.0,79,-99.99,,,0.69,weatherlink.com 1.10,2013-05-21 19:09:00,
2013-05-21 14:24:00,65.8,61.0,29.51,NNE,15,0.0,-999.0,84,-99.99,,,0.70,weatherlink.com 1.10,2013-05-21 19:24:00,
2013-05-21 14:39:00,66.3,63.0,29.51,North,9,0.0,-999.0,90,-99.99,,,0.70,weatherlink.com 1.10,2013-05-21 19:39:00,
2013-05-21 14:54:00,67.8,64.0,29.51,WNW,286,0.0,-999.0,87,-99.99,,,0.70,weatherlink.com 1.10,2013-05-21 19:54:00,
2013-05-21 15:09:00,67.4,60.0,29.51,NW,311,0.0,-999.0,78,-99.99,,,0.70,weatherlink.com 1.10,2013-05-21 20:09:00,
2013-05-21 15:24:00,67.9,63.0,29.51,NW,313,0.0,-999.0,84,-99.99,,,0.70,weatherlink.com 1.10,2013-05-21 20:24:00,
2013-05-21 15:39:00,69.3,64.0,29.51,WSW,240,1.0,-999.0,83,-99.99,,,0.70,weatherlink.com 1.10,2013-05-21 20:39:00,
2013-05-21 15:55:00,69.9,58.0,29.52,South,169,2.0,-999.0,66,-99.99,,,0.70,weatherlink.com 1.10,2013-05-21 20:55:00,
2013-05-21 16:10:00,69.4,57.0,29.52,WSW,241,3.0,-999.0,65,-99.99,,,0.70,weatherlink.com 1.10,2013-05-21 21:10:00,
2013-05-21 16:25:00,68.8,57.0,29.53,WSW,251,1.0,-999.0,67,-99.99,,,0.70,weatherlink.com 1.10,2013-05-21 21:25:00,
2013-05-21 16:40:00,68.8,57.0,29.53,West,261,1.0,-999.0,67,-99.99,,,0.70,weatherlink.com 1.10,2013-05-21 21:40:00,
2013-05-21 16:55:00,68.6,55.0,29.54,SW,232,2.0,-999.0,62,-99.99,,,0.70,weatherlink.com 1.10,2013-05-21 21:55:00,
2013-05-21 17:10:00,67.9,56.0,29.55,WNW,282,1.0,-999.0,66,-99.99,,,0.70,weatherlink.com 1.10,2013-05-21 22:10:00,
2013-05-21 17:25:00,67.1,54.0,29.55,SSW,208,1.0,-999.0,64,-99.99,,,0.70,weatherlink.com 1.10,2013-05-21 22:25:00,
2013-05-21 17:40:00,66.6,56.0,29.55,West,265,0.0,-999.0,69,-99.99,,,0.70,weatherlink.com 1.10,2013-05-21 22:40:00,
2013-05-21 17:55:00,66.1,54.0,29.55,South,182,1.0,-999.0,66,-99.99,,,0.70,weatherlink.com 1.10,2013-05-21 22:55:00,
2013-05-21 18:10:00,66.0,55.0,29.56,SW,222,1.0,-999.0,68,-99.99,,,0.70,weatherlink.com 1.10,2013-05-21 23:10:00,
2013-05-21 18:25:00,65.6,53.0,29.55,SW,224,1.0,-999.0,64,-99.99,,,0.70,weatherlink.com 1.10,2013-05-21 23:25:00,
2013-05-21 18:40:00,65.3,52.0,29.55,SW,230,0.0,-999.0,63,-99.99,,,0.70,weatherlink.com 1.10,2013-05-21 23:40:00,
2013-05-21 18:55:00,65.0,53.0,29.56,West,278,0.0,-999.0,66,-99.99,,,0.70,weatherlink.com 1.10,2013-05-21 23:55:00,
2013-05-21 19:10:00,64.7,54.0,29.56,WSW,248,0.0,-999.0,69,-99.99,,,0.70,weatherlink.com 1.10,2013-05-22 00:10:00,
2013-05-21 19:25:00,64.2,54.0,29.56,SW,225,0.0,-999.0,69,-99.99,,,0.70,weatherlink.com 1.10,2013-05-22 00:25:00,
2013-05-21 19:40:00,63.5,54.0,29.56,SW,225,0.0,-999.0,71,-99.99,,,0.70,weatherlink.com 1.10,2013-05-22 00:40:00,
2013-05-21 19:55:00,63.2,54.0,29.57,SW,225,0.0,-999.0,72,-99.99,,,0.70,weatherlink.com 1.10,2013-05-22 00:55:00,
2013-05-21 20:10:00,62.7,54.0,29.58,SW,225,0.0,-999.0,72,-99.99,,,0.70,weatherlink.com 1.10,2013-05-22 01:10:00,
2013-05-21 20:25:00,62.3,54.0,29.58,SW,225,0.0,-999.0,74,-99.99,,,0.70,weatherlink.com 1.10,2013-05-22 01:25:00,
2013-05-21 20:40:00,62.0,54.0,29.59,SW,225,0.0,-999.0,75,-99.99,,,0.70,weatherlink.com 1.10,2013-05-22 01:40:00,
2013-05-21 20:55:00,61.5,54.0,29.60,SW,225,0.0,-999.0,76,-99.99,,,0.70,weatherlink.com 1.10,2013-05-22 01:55:00,
2013-05-21 21:10:00,61.2,55.0,29.60,SW,225,0.0,-999.0,79,-99.99,,,0.70,weatherlink.com 1.10,2013-05-22 02:10:00,
2013-05-21 21:25:00,60.7,55.0,29.59,SW,225,0.0,-999.0,80,-99.99,,,0.70,weatherlink.com 1.10,2013-05-22 02:25:00,
2013-05-21 21:40:00,60.2,54.0,29.60,SW,225,0.0,-999.0,79,-99.99,,,0.70,weatherlink.com 1.10,2013-05-22 02:40:00,
2013-05-21 21:55:00,59.8,53.0,29.60,SW,225,0.0,-999.0,79,-99.99,,,0.70,weatherlink.com 1.10,2013-05-22 02:55:00,
2013-05-21 22:11:00,59.5,53.0,29.60,SW,225,0.0,-999.0,80,-99.99,,,0.70,weatherlink.com 1.10,2013-05-22 03:11:00,
2013-05-21 22:26:00,59.3,54.0,29.60,SW,225,0.0,-999.0,82,-99.99,,,0.70,weatherlink.com 1.10,2013-05-22 03:26:00,
2013-05-21 22:41:00,59.2,55.0,29.60,SW,225,0.0,-999.0,85,-99.99,,,0.70,weatherlink.com 1.10,2013-05-22 03:41:00,
2013-05-21 22:56:00,59.2,56.0,29.60,WSW,256,0.0,-999.0,88,-99.99,,,0.70,weatherlink.com 1.10,2013-05-22 03:56:00,
2013-05-21 23:10:00,59.2,56.0,29.59,North,9,0.0,-999.0,89,-99.99,,,0.70,weatherlink.com 1.10,2013-05-22 04:10:00,
2013-05-21 23:25:00,59.0,56.0,29.60,North,9,0.0,-999.0,89,-99.99,,,0.70,weatherlink.com 1.10,2013-05-22 04:25:00,
2013-05-21 23:40:00,58.9,56.0,29.59,North,9,0.0,-999.0,89,-99.99,,,0.70,weatherlink.com 1.10,2013-05-22 04:40:00,
2013-05-21 23:55:00,58.6,55.0,29.59,North,9,0.0,-999.0,89,-99.99,,,0.70,weatherlink.com 1.10,2013-05-22 04:55:00,